Погода в Итабуне

Бразилия     14°47′40″S   39°16′25″W
темп.,
°C
ветер,
м/с
пор.,
м/с
влажн.,
%
обл.,
%
осадки,
мм/ч
давл.,
гПа
погр.,
м
27 февраля, сб
сб2700:00+21ююз0199100 0.0 101423
03:00+20юз119981 0.0 101325
06:00+20зюз1199100 0.0 101330
09:00+27в027782 0.3 1015628
12:00+30в245481 1.5 10141531
15:00+30в355584 2.3 10111534
18:00+24вюв148422 0.0 1011157
21:00+21ю119927 0.1 101323
28 февраля, вс
вс2800:00+21зюз129897 0.1 101330
03:00+21юз129792 0.3 101270
06:00+20юз129994 0.0 101284
09:00+25ююв258978 1.3 1013623
12:00+26вюв269485 4.2 1013834
15:00+25вюв269592 9.4 1010859
18:00+23юв129799 1.5 101164
21:00+22ю1699100 2.1 1012225
1 марта, пн
пн100:00+21ю1199100 0.9 101242
03:00+21ююз2599100 1.1 1011147
06:00+21ююз12100100 0.3 101279
09:00+24юв269698 3.0 1013738
12:00+27вюв258114 3.5 10131147
15:00+28вюв355348 3.8 10111392
18:00+23вюв178274 0.0 1011256
21:00+20юв119684 0.0 101325
2 марта, вт
вт200:00+21юз119443 0.2 101324
03:00+20юз129925 0.4 101338
06:00+19юз129933 0.0 101349
09:00+27юв246523 0.1 10151068
12:00+31в46430 0.0 10141730
15:00+29в35520 0.0 10121404
18:00+23вюв178327 0.0 1013278
21:00+21юв119821 0.0 101528
3 марта, ср
ср300:00+20юз119916 0.8 101526
03:00+20зюз1110038 2.5 101452
06:00+20зюз1210086 1.3 101571
09:00+24ююв149570 3.3 1017444
12:00+25в139570 3.9 1016427
15:00+27в247555 5.8 1013805
18:00+23вюв15820 0.0 1013155
21:00+21ююз11942 0.0 101523